This is the latest recevied weather packets stored in our database for station/object N9PBY-2. If no packets are shown the sender has not sent any weather packets the latest 10 day(s).
| Time | Temp. | Humidity | Pressure | Rain* | Wind** | Luminosity | Snow |
|---|---|---|---|---|---|---|---|
| 1777930806 | 25° C | 23% | 994.9 hPa | 0 mm | - | - | - |
| 1777930207 | 25° C | 24% | 995.2 hPa | 0 mm | - | - | - |
| 1777929607 | 24.44° C | 25% | 995.2 hPa | 0 mm | - | - | - |
| 1777929006 | 24.44° C | 25% | 995.4 hPa | 0 mm | - | - | - |
| 1777928407 | 25° C | 24% | 995.4 hPa | 0 mm | - | - | - |
| 1777927807 | 25° C | 24% | 995.4 hPa | 0 mm | - | - | - |
| 1777927207 | 25.56° C | 24% | 995.5 hPa | 0 mm | - | - | - |
| 1777926607 | 25° C | 23% | 995.4 hPa | 0 mm | - | - | - |
| 1777926007 | 25.56° C | 25% | 995.6 hPa | 0 mm | - | - | - |
| 1777925406 | 25.56° C | 21% | 995.9 hPa | 0 mm | - | - | - |
| 1777924807 | 25.56° C | 21% | 995.8 hPa | 0 mm | - | - | - |
| 1777924206 | 25.56° C | 22% | 995.8 hPa | 0 mm | - | - | - |
| 1777923606 | 25.56° C | 21% | 995.9 hPa | 0 mm | - | - | - |
| 1777923006 | 26.11° C | 20% | 995.9 hPa | 0 mm | - | - | - |
| 1777922407 | 26.11° C | 18% | 996.1 hPa | 0 mm | - | - | - |
| 1777921806 | 26.67° C | 19% | 996.1 hPa | 0 mm | - | - | - |
| 1777921206 | 26.67° C | 20% | 996 hPa | 0 mm | - | - | - |
| 1777920607 | 26.11° C | 19% | 995.9 hPa | 0 mm | - | - | - |
| 1777920006 | 26.11° C | 19% | 996.2 hPa | 0 mm | - | - | - |
| 1777919407 | 25.56° C | 19% | 996.4 hPa | 0 mm | - | - | - |
| 1777918806 | 26.11° C | 20% | 996.4 hPa | 0 mm | - | - | - |
| 1777918207 | 25.56° C | 18% | 996.4 hPa | 0 mm | - | - | - |
| 1777917607 | 25.56° C | 20% | 996.6 hPa | 0 mm | - | - | - |
| 1777917006 | 25.56° C | 19% | 996.4 hPa | 0 mm | - | - | - |
| 1777916407 | 25° C | 21% | 996.6 hPa | 0 mm | - | - | - |
* Rain latest hour (hover to see other rain measurements)
** Current wind speed in m/s (hover to see current wind gust speed)